Location: ???????
(55.3754°N, 39.3545°E)
Time: 20:42:00
(UTC+00:00)

Cosmos 1634 Rocket - Pass Details

Date: 14 April 2026
Orbit: 959 x 992 km, 82.9° (Epoch: 11 May)

Event Time Altitude Azimuth Distance (km) Brightness Sun altitude
Exits shadow 23:24:33 25° 169° (S) 1,856 5.1 -20.1°
Maximum altitude 23:28:16 65° 95° (E) 1,058 4.2 -19.9°
Drops below altitude 10° 23:34:23 10° 15° (NNE) 2,707 7.4 -19.4°
Sets 23:36:54 0° 13° (NNE) 3,656 8.2 -19.2°
